Time,TemperatureF,DewpointF,PressureIn,WindDirection,WindDirectionDegrees,WindSpeedMPH,WindSpeedGustMPH,Humidity,HourlyPrecipIn,Conditions,Clouds,dailyrainin,SoftwareType,DateUTC
2013-02-07 00:13:00,65.9,62.0,30.07,SSE,149,3.0,5.0,87,0.00,,,0.00,weatherlink.com 1.10,2013-02-07 05:13:00,
2013-02-07 00:28:00,65.4,62.0,30.07,SE,146,3.0,5.0,88,0.00,,,0.00,weatherlink.com 1.10,2013-02-07 05:28:00,
2013-02-07 00:43:00,65.3,62.0,30.07,SE,146,3.0,5.0,88,0.00,,,0.00,weatherlink.com 1.10,2013-02-07 05:43:00,
2013-02-07 00:58:00,65.4,62.0,30.08,SSE,150,2.0,7.0,87,0.00,,,0.00,weatherlink.com 1.10,2013-02-07 05:58:00,
2013-02-07 01:13:00,65.7,62.0,30.07,SE,138,3.0,6.0,87,0.00,,,0.00,weatherlink.com 1.10,2013-02-07 06:13:00,
2013-02-07 01:28:00,65.2,62.0,30.07,SE,131,1.0,4.0,88,0.00,,,0.00,weatherlink.com 1.10,2013-02-07 06:28:00,
2013-02-07 01:43:00,65.2,62.0,30.07,SSE,163,2.0,6.0,88,0.00,,,0.00,weatherlink.com 1.10,2013-02-07 06:43:00,
2013-02-07 01:58:00,65.6,62.0,30.07,SSE,154,7.0,7.0,87,0.00,,,0.00,weatherlink.com 1.10,2013-02-07 06:58:00,
2013-02-07 02:13:00,65.6,62.0,30.07,SE,143,4.0,7.0,87,0.00,,,0.00,weatherlink.com 1.10,2013-02-07 07:13:00,
2013-02-07 02:28:00,65.5,62.0,30.06,SSE,150,3.0,7.0,87,0.00,,,0.00,weatherlink.com 1.10,2013-02-07 07:28:00,
2013-02-07 02:43:00,65.3,62.0,30.06,SSE,157,2.0,5.0,88,0.00,,,0.00,weatherlink.com 1.10,2013-02-07 07:43:00,
2013-02-07 02:58:00,65.1,62.0,30.05,SSE,155,1.0,4.0,89,0.00,,,0.00,weatherlink.com 1.10,2013-02-07 07:58:00,
2013-02-07 03:13:00,64.8,62.0,30.05,SSE,150,2.0,4.0,89,0.00,,,0.00,weatherlink.com 1.10,2013-02-07 08:13:00,
2013-02-07 03:28:00,64.1,61.0,30.05,SSE,148,0.0,2.0,89,0.00,,,0.00,weatherlink.com 1.10,2013-02-07 08:28:00,
2013-02-07 03:44:00,63.7,61.0,30.04,SSE,148,0.0,3.0,90,0.00,,,0.00,weatherlink.com 1.10,2013-02-07 08:44:00,
2013-02-07 03:59:00,63.1,61.0,30.04,SSE,148,0.0,3.0,91,0.00,,,0.00,weatherlink.com 1.10,2013-02-07 08:59:00,
2013-02-07 04:14:00,62.7,60.0,30.05,SSE,148,0.0,2.0,92,0.00,,,0.00,weatherlink.com 1.10,2013-02-07 09:14:00,
2013-02-07 04:29:00,62.5,61.0,30.05,SSE,148,0.0,0.0,93,0.00,,,0.00,weatherlink.com 1.10,2013-02-07 09:29:00,
2013-02-07 04:44:00,62.2,60.0,30.05,SSE,148,0.0,0.0,93,0.00,,,0.00,weatherlink.com 1.10,2013-02-07 09:44:00,
2013-02-07 04:59:00,61.9,60.0,30.04,SSE,148,0.0,0.0,93,0.00,,,0.00,weatherlink.com 1.10,2013-02-07 09:59:00,
2013-02-07 05:14:00,61.7,60.0,30.05,SSE,148,0.0,1.0,94,0.00,,,0.00,weatherlink.com 1.10,2013-02-07 10:14:00,
2013-02-07 05:29:00,61.6,60.0,30.06,SSE,148,0.0,0.0,94,0.00,,,0.00,weatherlink.com 1.10,2013-02-07 10:29:00,
2013-02-07 05:44:00,62.1,61.0,30.06,SSE,147,2.0,3.0,95,0.00,,,0.00,weatherlink.com 1.10,2013-02-07 10:44:00,
2013-02-07 05:59:00,62.3,60.0,30.06,SSE,147,0.0,1.0,93,0.00,,,0.00,weatherlink.com 1.10,2013-02-07 10:59:00,
2013-02-07 06:14:00,61.9,60.0,30.06,SSE,147,0.0,0.0,93,0.00,,,0.00,weatherlink.com 1.10,2013-02-07 11:14:00,
2013-02-07 06:29:00,61.5,60.0,30.07,SSE,147,0.0,1.0,94,0.00,,,0.00,weatherlink.com 1.10,2013-02-07 11:29:00,
2013-02-07 06:44:00,61.3,60.0,30.07,SSE,147,0.0,0.0,94,0.00,,,0.00,weatherlink.com 1.10,2013-02-07 11:44:00,
2013-02-07 06:59:00,61.3,60.0,30.07,SSE,147,0.0,1.0,95,0.00,,,0.00,weatherlink.com 1.10,2013-02-07 11:59:00,
2013-02-07 07:14:00,61.2,60.0,30.06,SSE,147,0.0,2.0,96,0.00,,,0.00,weatherlink.com 1.10,2013-02-07 12:14:00,
2013-02-07 07:29:00,61.4,60.0,30.07,SSE,147,2.0,3.0,96,0.00,,,0.00,weatherlink.com 1.10,2013-02-07 12:29:00,
2013-02-07 07:44:00,62.7,62.0,30.07,SE,140,1.0,4.0,96,0.00,,,0.00,weatherlink.com 1.10,2013-02-07 12:44:00,
2013-02-07 07:59:00,62.7,61.0,30.07,SE,140,3.0,5.0,95,0.00,,,0.00,weatherlink.com 1.10,2013-02-07 12:59:00,
2013-02-07 08:14:00,63.0,62.0,30.07,SE,140,0.0,3.0,95,0.00,,,0.00,weatherlink.com 1.10,2013-02-07 13:14:00,
2013-02-07 08:29:00,64.5,63.0,30.07,SE,134,2.0,4.0,93,0.00,,,0.00,weatherlink.com 1.10,2013-02-07 13:29:00,
2013-02-07 08:44:00,65.3,63.0,30.07,South,170,3.0,7.0,93,0.00,,,0.00,weatherlink.com 1.10,2013-02-07 13:44:00,
2013-02-07 08:59:00,65.9,63.0,30.08,SSE,166,3.0,7.0,91,0.00,,,0.00,weatherlink.com 1.10,2013-02-07 13:59:00,
2013-02-07 09:14:00,66.7,64.0,30.07,South,184,3.0,10.0,90,0.00,,,0.00,weatherlink.com 1.10,2013-02-07 14:14:00,
2013-02-07 09:29:00,67.4,64.0,30.05,SE,141,10.0,11.0,89,0.00,,,0.00,weatherlink.com 1.10,2013-02-07 14:29:00,
2013-02-07 09:44:00,69.4,65.0,30.06,SSW,197,7.0,11.0,87,0.00,,,0.00,weatherlink.com 1.10,2013-02-07 14:44:00,
2013-02-07 09:59:00,69.9,65.0,30.05,SSE,162,6.0,12.0,85,0.00,,,0.00,weatherlink.com 1.10,2013-02-07 14:59:00,
2013-02-07 10:14:00,71.2,66.0,30.06,SSW,195,8.0,12.0,83,0.00,,,0.00,weatherlink.com 1.10,2013-02-07 15:14:00,
2013-02-07 10:29:00,71.7,66.0,30.06,South,172,11.0,12.0,82,0.00,,,0.00,weatherlink.com 1.10,2013-02-07 15:29:00,
2013-02-07 10:44:00,73.1,66.0,30.05,South,173,12.0,17.0,79,0.00,,,0.00,weatherlink.com 1.10,2013-02-07 15:44:00,
2013-02-07 10:59:00,73.6,67.0,30.06,SSE,161,7.0,17.0,79,0.00,,,0.00,weatherlink.com 1.10,2013-02-07 15:59:00,
2013-02-07 11:14:00,74.3,66.0,30.04,SSW,207,9.0,17.0,76,0.00,,,0.00,weatherlink.com 1.10,2013-02-07 16:14:00,
2013-02-07 11:29:00,74.7,66.0,30.03,SSW,207,9.0,16.0,75,0.00,,,0.00,weatherlink.com 1.10,2013-02-07 16:29:00,
2013-02-07 11:44:00,74.8,66.0,30.02,South,174,6.0,19.0,74,0.00,,,0.00,weatherlink.com 1.10,2013-02-07 16:44:00,
2013-02-07 12:00:00,75.9,65.0,30.02,SSE,152,5.0,15.0,70,0.00,,,0.00,weatherlink.com 1.10,2013-02-07 17:00:00,
2013-02-07 12:15:00,76.6,65.0,30.01,SE,144,4.0,16.0,67,0.00,,,0.00,weatherlink.com 1.10,2013-02-07 17:15:00,
2013-02-07 12:30:00,76.8,65.0,29.99,SSW,204,10.0,18.0,67,0.00,,,0.00,weatherlink.com 1.10,2013-02-07 17:30:00,
2013-02-07 12:45:00,77.2,65.0,29.99,South,184,7.0,13.0,65,0.00,,,0.00,weatherlink.com 1.10,2013-02-07 17:45:00,
2013-02-07 13:00:00,78.2,64.0,29.98,SW,215,13.0,16.0,62,0.00,,,0.00,weatherlink.com 1.10,2013-02-07 18:00:00,
2013-02-07 13:15:00,78.9,63.0,29.98,SSW,208,10.0,15.0,59,0.00,,,0.00,weatherlink.com 1.10,2013-02-07 18:15:00,
2013-02-07 13:30:00,77.8,64.0,29.96,SSW,199,7.0,15.0,62,0.00,,,0.00,weatherlink.com 1.10,2013-02-07 18:30:00,
2013-02-07 13:45:00,78.0,64.0,29.95,SSW,197,7.0,20.0,62,0.00,,,0.00,weatherlink.com 1.10,2013-02-07 18:45:00,
2013-02-07 14:00:00,78.3,63.0,29.95,South,186,12.0,14.0,60,0.00,,,0.00,weatherlink.com 1.10,2013-02-07 19:00:00,
2013-02-07 14:15:00,78.4,62.0,29.94,SSW,199,7.0,17.0,57,0.00,,,0.00,weatherlink.com 1.10,2013-02-07 19:15:00,
2013-02-07 14:30:00,79.3,62.0,29.95,SW,230,13.0,19.0,56,0.00,,,0.00,weatherlink.com 1.10,2013-02-07 19:30:00,
2013-02-07 14:45:00,80.1,62.0,29.93,SSW,211,11.0,17.0,55,0.00,,,0.00,weatherlink.com 1.10,2013-02-07 19:45:00,
2013-02-07 15:00:00,79.8,63.0,29.91,SSW,196,10.0,14.0,56,0.00,,,0.00,weatherlink.com 1.10,2013-02-07 20:00:00,
2013-02-07 15:15:00,80.5,62.0,29.90,SSW,195,10.0,17.0,54,0.00,,,0.00,weatherlink.com 1.10,2013-02-07 20:15:00,
2013-02-07 15:30:00,80.3,62.0,29.90,SSW,209,12.0,17.0,53,0.00,,,0.00,weatherlink.com 1.10,2013-02-07 20:30:00,
2013-02-07 15:45:00,80.6,61.0,29.90,SSW,212,9.0,16.0,52,0.00,,,0.00,weatherlink.com 1.10,2013-02-07 20:45:00,
2013-02-07 16:00:00,80.2,61.0,29.90,SW,216,14.0,17.0,52,0.00,,,0.00,weatherlink.com 1.10,2013-02-07 21:00:00,
2013-02-07 16:15:00,80.2,61.0,29.91,SW,226,11.0,17.0,53,0.00,,,0.00,weatherlink.com 1.10,2013-02-07 21:15:00,
2013-02-07 16:30:00,79.4,61.0,29.91,SW,219,12.0,20.0,53,0.00,,,0.00,weatherlink.com 1.10,2013-02-07 21:30:00,
2013-02-07 16:45:00,79.1,60.0,29.93,WSW,242,13.0,19.0,53,0.00,,,0.00,weatherlink.com 1.10,2013-02-07 21:45:00,
2013-02-07 17:00:00,78.5,59.0,29.93,SSW,212,13.0,17.0,52,0.00,,,0.00,weatherlink.com 1.10,2013-02-07 22:00:00,
2013-02-07 17:15:00,77.9,58.0,29.92,SW,219,13.0,21.0,51,0.00,,,0.00,weatherlink.com 1.10,2013-02-07 22:15:00,
2013-02-07 17:30:00,77.4,59.0,29.92,SSW,208,11.0,18.0,54,0.00,,,0.00,weatherlink.com 1.10,2013-02-07 22:30:00,
2013-02-07 17:45:00,76.9,60.0,29.93,SSW,205,6.0,14.0,57,0.00,,,0.00,weatherlink.com 1.10,2013-02-07 22:45:00,
2013-02-07 18:00:00,76.0,61.0,29.90,SW,214,18.0,18.0,59,0.00,,,0.00,weatherlink.com 1.10,2013-02-07 23:00:00,
2013-02-07 18:15:00,75.5,61.0,29.91,SW,224,18.0,22.0,62,0.00,,,0.00,weatherlink.com 1.10,2013-02-07 23:15:00,
2013-02-07 18:30:00,74.9,63.0,29.92,West,261,6.0,14.0,66,0.00,,,0.00,weatherlink.com 1.10,2013-02-07 23:30:00,
2013-02-07 18:45:00,74.2,64.0,29.93,WSW,254,10.0,14.0,70,0.00,,,0.00,weatherlink.com 1.10,2013-02-07 23:45:00,
2013-02-07 19:00:00,73.7,65.0,29.94,SSW,210,11.0,16.0,73,0.00,,,0.00,weatherlink.com 1.10,2013-02-08 00:00:00,
2013-02-07 19:15:00,73.1,64.0,29.93,SW,220,11.0,19.0,74,0.00,,,0.00,weatherlink.com 1.10,2013-02-08 00:15:00,
2013-02-07 19:30:00,72.8,65.0,29.93,South,176,5.0,17.0,76,0.00,,,0.00,weatherlink.com 1.10,2013-02-08 00:30:00,
2013-02-07 19:45:00,72.5,65.0,29.92,SW,216,12.0,20.0,78,0.00,,,0.00,weatherlink.com 1.10,2013-02-08 00:45:00,
2013-02-07 20:00:00,72.3,65.0,29.93,SW,221,14.0,22.0,79,0.00,,,0.00,weatherlink.com 1.10,2013-02-08 01:00:00,
2013-02-07 20:15:00,70.4,66.0,29.87,SW,218,19.0,26.0,86,0.00,,,0.00,weatherlink.com 1.10,2013-02-08 01:15:00,
2013-02-07 20:30:00,70.2,67.0,29.91,SSW,204,13.0,22.0,88,0.01,,,0.01,weatherlink.com 1.10,2013-02-08 01:30:00,
2013-02-07 20:45:00,70.4,67.0,29.93,SSW,209,5.0,14.0,88,0.01,,,0.01,weatherlink.com 1.10,2013-02-08 01:45:00,
2013-02-07 21:00:00,70.1,67.0,29.92,SSW,211,5.0,14.0,89,0.01,,,0.01,weatherlink.com 1.10,2013-02-08 02:00:00,
2013-02-07 21:15:00,70.0,67.0,29.92,WSW,254,6.0,12.0,89,0.00,,,0.01,weatherlink.com 1.10,2013-02-08 02:15:00,
2013-02-07 21:30:00,69.8,67.0,29.92,SW,215,6.0,11.0,89,0.00,,,0.01,weatherlink.com 1.10,2013-02-08 02:30:00,
2013-02-07 21:45:00,69.6,67.0,29.92,WSW,250,7.0,12.0,90,0.00,,,0.01,weatherlink.com 1.10,2013-02-08 02:45:00,
2013-02-07 22:00:00,69.4,67.0,29.92,SW,217,13.0,13.0,91,0.00,,,0.01,weatherlink.com 1.10,2013-02-08 03:00:00,
2013-02-07 22:15:00,69.1,67.0,29.92,SSW,206,3.0,11.0,92,0.00,,,0.01,weatherlink.com 1.10,2013-02-08 03:15:00,
2013-02-07 22:30:00,69.0,67.0,29.92,SSW,213,4.0,11.0,92,0.00,,,0.01,weatherlink.com 1.10,2013-02-08 03:30:00,
2013-02-07 22:45:00,68.8,66.0,29.92,South,179,11.0,16.0,92,0.00,,,0.01,weatherlink.com 1.10,2013-02-08 03:45:00,
2013-02-07 23:00:00,68.8,66.0,29.92,SSW,207,5.0,16.0,92,0.00,,,0.01,weatherlink.com 1.10,2013-02-08 04:00:00,
2013-02-07 23:15:00,68.7,66.0,29.91,SSW,207,7.0,14.0,92,0.00,,,0.01,weatherlink.com 1.10,2013-02-08 04:15:00,
2013-02-07 23:30:00,68.5,66.0,29.91,SSW,204,3.0,10.0,92,0.00,,,0.01,weatherlink.com 1.10,2013-02-08 04:30:00,
2013-02-07 23:45:00,68.3,66.0,29.92,SW,226,3.0,9.0,93,0.00,,,0.01,weatherlink.com 1.10,2013-02-08 04:45:00,